Flag for US Virgin Islands Weather past 2 weeks in Christiansted, US Virgin Islands

Now
79 °F

Heavy rain. Fog.


Feels Like: 82 °F
Forecast: 78 / 83 °F
Wind: 14 mph from Southeast

Location: Christiansted / Henry E. Rohlsen Airport - Saint Croix

Current Time: Aug 22, 2014 at 12:18:56 PM

Latest Report: Aug 22, 2014 at 11:49 AM


Visibility: 1 mi

Pressure: 29.93 "Hg

Humidity: 89%

Dew point: 75 °F

Location of ChristianstedLocation

Historic Weather in Christiansted — Graph

°F

Christiansted temperature yesterday

Maximum temperature yesterday: 90 °F (at 11:53 AM)
Minimum temperature yesterday: 79 °F (at 8:53 PM)
Average temperature yesterday: 83 °F

Past Weeks' High & Low Weather Summary

 TemperatureHumidityPressure
High90 °F (Aug 7, 11:53 AM)100% (Aug 22, 10:16 AM)30.11 "Hg (Aug 22, 10:16 AM)
Low75 °F (Aug 22, 10:16 AM)54% (Aug 14, 11:53 AM)29.82 "Hg (Aug 22, 4:53 AM)
Average83 °F78%30.01 "Hg
* Reported Aug 7 11:53 AM — Aug 22 11:20 AM, Christiansted, Weather by CustomWeather, © 2014

Note: Actual official high and low records may vary slightly from our data, if they occured in-between our weather recording intervals... More about our weather records

Advertising

Christiansted weather history for previous 24 hours

 ConditionsComfort  
Time TempWeatherWind HumidityBarometerVisibility
11:20 AM
Aug 22
79 °FRain. Fog.12 mph89%29.91 "Hg2 mi
10:16 AM75 °FHeavy rain. Fog.14 mph100%29.92 "Hg2 mi
10:03 AM77 °FHeavy rain. Fog.14 mph94%29.92 "Hg2 mi
9:46 AM79 °FHeavy rain. Fog.10 mph89%29.91 "Hg2 mi
9:01 AM77 °FLight rain. Fog.14 mph94%29.89 "Hg3 mi
8:30 AM81 °FLight rain. Fog.13 mph89%29.86 "Hg6 mi
7:53 AM80 °FLight rain. Cloudy.10 mph87%29.86 "Hg10 mi
7:23 AM81 °FCloudy.14 mph89%29.85 "Hg10 mi
6:53 AM79 °FLight rain. Fog.9 mph90%29.83 "Hg5 mi
6:39 AM79 °FHeavy rain. Fog.8 mph89%29.84 "Hg2 mi
5:53 AM79 °FPartly cloudy.9 mph88%29.83 "Hg10 mi
4:53 AM80 °FLight rain. Passing clouds.8 mph87%29.82 "Hg10 mi
4:44 AM79 °FPartly cloudy.5 mph89%29.83 "Hg10 mi
3:53 AM79 °FPassing clouds.3 mph90%29.83 "Hg10 mi
2:53 AM79 °FPassing clouds.8 mph90%29.84 "Hg10 mi
12:53 AM81 °FClear.12 mph85%29.87 "Hg10 mi
12:09 AM81 °FMostly cloudy.10 mph89%29.89 "Hg10 mi
11:53 PM
Aug 21
81 °FLight rain. Fog.8 mph88%29.89 "Hg6 mi
9:53 PM80 °FPassing clouds.3 mph94%29.91 "Hg10 mi
8:53 PM79 °FLight rain. Passing clouds.7 mph88%29.92 "Hg10 mi
7:53 PM82 °FPassing clouds.10 mph82%29.90 "Hg10 mi
6:53 PM83 °FPassing clouds.9 mph79%29.90 "Hg10 mi
4:53 PM84 °FLight rain. Scattered clouds.12 mph83%29.89 "Hg9 mi
2:53 PM90 °FScattered clouds.13 mph61%29.89 "Hg10 mi
Weather by CustomWeather, © 2014

See weather overviewHow to use our weather pages